QZS-2 (QZSS/PRN 184)

Last updated on Oct. 25, 2020, 5:57 a.m. UTC

1 42738U 17028A   20298.79008554 -.00000234  00000-0  00000+0 0  9990
2 42738  42.7814 272.6182 0746074 270.7454 273.1995  1.00253431 12465
UTC
Height (km)
Latitude
Longitude
Inclination
Orbital Period
UTC large
Height (km)
Speed (km/s)
/
Latitude / Longitude
Inclination (degrees)
Orbital Period (minutes)
Azimuth
Elevation
Range (km)
Doppler Factor
iOS Compass Heading
iOS Angle

Next 30 passes for location: Hong Kong

Rise time Rise Azimuth (degrees) Set time Set Azimuth (degrees) Duration Max altitude (degrees)

No matching passes for this satellites